Location: Molveno
(46.1500°N, 10.9667°E)
Time: 17:07:47
(UTC+00:00)

Cosmos 2219 Rocket - Pass Details

Date: 05 July 2020
Orbit: 827 x 848 km, 71.0° (Epoch: 11 August)

Event Time Altitude Azimuth Distance (km) Brightness Sun altitude
Exits shadow 20:30:26 - 185° (S) 2,961 4.6 -11.1°
Reaches altitude 10° 20:31:54 10° 181° (S) 2,423 4.1 -11.3°
Maximum altitude 20:37:12 48° 109° (ESE) 1,078 2.4 -11.8°
Drops below altitude 10° 20:42:33 10° 36° (NE) 2,449 4.8 -12.4°
Sets 20:45:04 0° 31° (NNE) 3,390 5.6 -12.7°
